DAL1760 KATL-MDPC

Flight info

Callsign DAL1760
Flight time N/A
Altitude 33000
Route VRSTY3 NOKIE DCT YANTI Q89 MANLE Y185 VENDS Y306 HAGIT DCT POKEG UT17 KOBET/N0460F340 DCT PETRI/N0382F190 W28 PNA
Aircraft A321/M-SDE3FGHIRWY/LB1

Departure

Time 2026-05-01 13:36
Airport Hartsfield Jackson Atlanta International Airport (KATL)

Arrival

Time N/A
Airport Punta Cana International Airport (MDPC)
Time Latitude Longitude Altitude Speed Heading
2026-05-01 13:24 33.64246 -84.42628 1035 ft 0 kts 90°
2026-05-01 13:27 33.64247 -84.42669 1035 ft 4 kts 92°
2026-05-01 13:28 33.64262 -84.42727 1035 ft 4 kts 144°
2026-05-01 13:28 33.64277 -84.42735 1035 ft 0 kts 180°
2026-05-01 13:30 33.64273 -84.42735 1035 ft 1 kts 180°
2026-05-01 13:31 33.64058 -84.42736 1035 ft 25 kts 180°
2026-05-01 13:31 33.63635 -84.42769 1035 ft 14 kts 193°
2026-05-01 13:32 33.63582 -84.42943 1035 ft 11 kts 270°
2026-05-01 13:33 33.63583 -84.43378 1034 ft 19 kts 270°
2026-05-01 13:33 33.63582 -84.43668 1035 ft 20 kts 270°
2026-05-01 13:34 33.63581 -84.44134 1036 ft 27 kts 269°
2026-05-01 13:34 33.63582 -84.44565 1036 ft 24 kts 270°
2026-05-01 13:35 33.63478 -84.44727 1035 ft 16 kts 108°
2026-05-01 13:35 33.63471 -84.44599 1035 ft 15 kts 89°
2026-05-01 13:35 33.63470 -84.43663 1035 ft 115 kts 90°
2026-05-01 13:36 33.63471 -84.42502 1037 ft 161 kts 90°
2026-05-01 13:36 33.63497 -84.41024 1248 ft 182 kts 89°
2026-05-01 13:36 33.63276 -84.38118 2744 ft 176 kts 108°
2026-05-01 13:37 33.62861 -84.36700 3002 ft 189 kts 108°
2026-05-01 13:37 33.62408 -84.35139 3168 ft 208 kts 109°
2026-05-01 13:37 33.61913 -84.33438 3310 ft 226 kts 109°
2026-05-01 13:37 33.61374 -84.31585 3575 ft 241 kts 109°
2026-05-01 13:38 33.59396 -84.28203 4284 ft 268 kts 154°
2026-05-01 13:38 33.57600 -84.27624 4890 ft 271 kts 180°
2026-05-01 13:38 33.55701 -84.27609 5559 ft 274 kts 182°
2026-05-01 13:39 33.53756 -84.27616 6294 ft 277 kts 182°
2026-05-01 13:39 33.51846 -84.27624 6954 ft 279 kts 182°
2026-05-01 13:39 33.49871 -84.27632 7586 ft 282 kts 183°
2026-05-01 13:39 33.47902 -84.27638 8228 ft 284 kts 183°
2026-05-01 13:40 33.45918 -84.27622 8878 ft 288 kts 179°
2026-05-01 13:40 33.43916 -84.27245 9496 ft 293 kts 173°
2026-05-01 13:40 33.41909 -84.26778 10108 ft 295 kts 173°
2026-05-01 13:40 33.39870 -84.26289 10353 ft 314 kts 169°
2026-05-01 13:41 33.37752 -84.25327 10493 ft 339 kts 155°
2026-05-01 13:41 33.35713 -84.23655 10614 ft 362 kts 144°
2026-05-01 13:41 33.33728 -84.21725 10943 ft 372 kts 144°
2026-05-01 13:41 33.31699 -84.19763 11433 ft 377 kts 145°
2026-05-01 13:42 33.29650 -84.17790 11948 ft 381 kts 146°
2026-05-01 13:42 33.27573 -84.15798 12478 ft 385 kts 146°
2026-05-01 13:42 33.25469 -84.13784 12985 ft 390 kts 147°
2026-05-01 13:42 33.23340 -84.11748 13491 ft 394 kts 147°
2026-05-01 13:43 33.21188 -84.09689 13981 ft 399 kts 147°
2026-05-01 13:43 33.19013 -84.07608 14399 ft 403 kts 148°
2026-05-01 13:43 33.16807 -84.05502 14804 ft 408 kts 148°
2026-05-01 13:43 33.14574 -84.03371 15225 ft 413 kts 148°
2026-05-01 13:44 33.12317 -84.01218 15629 ft 418 kts 148°
2026-05-01 13:44 33.10035 -83.99043 16027 ft 422 kts 148°
2026-05-01 13:44 33.07719 -83.96853 16433 ft 426 kts 149°
2026-05-01 13:44 33.05338 -83.94734 16826 ft 429 kts 151°
2026-05-01 13:45 33.02894 -83.92678 17236 ft 432 kts 153°
2026-05-01 13:45 33.00409 -83.90648 17649 ft 435 kts 153°
2026-05-01 13:45 32.97895 -83.88616 18051 ft 439 kts 153°
2026-05-01 13:45 32.95359 -83.86556 18420 ft 443 kts 153°
2026-05-01 13:46 32.92816 -83.84461 18799 ft 446 kts 153°
2026-05-01 13:46 32.90268 -83.82340 19175 ft 448 kts 153°
2026-05-01 13:46 32.87716 -83.80203 19539 ft 450 kts 153°
2026-05-01 13:46 32.85150 -83.78052 19902 ft 452 kts 153°
2026-05-01 13:47 32.82572 -83.75893 20262 ft 454 kts 153°
2026-05-01 13:47 32.79980 -83.73727 20628 ft 456 kts 153°
2026-05-01 13:47 32.77378 -83.71559 20999 ft 458 kts 153°
2026-05-01 13:47 32.74762 -83.69387 21355 ft 460 kts 153°
2026-05-01 13:48 32.72134 -83.67210 21714 ft 461 kts 153°
2026-05-01 13:48 32.69498 -83.65032 22074 ft 463 kts 153°
2026-05-01 13:48 32.66860 -83.62816 22436 ft 466 kts 152°
2026-05-01 13:48 32.64236 -83.60528 22775 ft 469 kts 151°
2026-05-01 13:49 32.61626 -83.58196 23121 ft 471 kts 151°
2026-05-01 13:49 32.59011 -83.55839 23471 ft 473 kts 150°
2026-05-01 13:49 32.56385 -83.53477 23763 ft 475 kts 151°
2026-05-01 13:49 32.53742 -83.51120 24034 ft 476 kts 151°
2026-05-01 13:50 32.51079 -83.48766 24313 ft 478 kts 151°
2026-05-01 13:50 32.48403 -83.46416 24577 ft 480 kts 151°
2026-05-01 13:50 32.45710 -83.44058 24836 ft 482 kts 151°
2026-05-01 13:50 32.43012 -83.41694 25101 ft 484 kts 151°
2026-05-01 13:51 32.40303 -83.39319 25357 ft 486 kts 151°
2026-05-01 13:51 32.37587 -83.36934 25613 ft 487 kts 151°
2026-05-01 13:51 32.34855 -83.34536 25871 ft 489 kts 151°
2026-05-01 13:51 32.32118 -83.32137 26123 ft 491 kts 151°
2026-05-01 13:52 32.29369 -83.29730 26380 ft 492 kts 151°
2026-05-01 13:52 32.26614 -83.27317 26622 ft 494 kts 151°
2026-05-01 13:52 32.23846 -83.24894 26853 ft 496 kts 151°
2026-05-01 13:52 32.21065 -83.22465 27086 ft 498 kts 151°
2026-05-01 13:53 32.18274 -83.20033 27312 ft 500 kts 151°
2026-05-01 13:53 32.12653 -83.15136 27742 ft 503 kts 151°
2026-05-01 13:53 32.09835 -83.12681 27957 ft 505 kts 151°
2026-05-01 13:54 32.07002 -83.10215 28171 ft 507 kts 151°
2026-05-01 13:54 32.04161 -83.07742 28399 ft 509 kts 151°
2026-05-01 13:54 32.01307 -83.05261 28603 ft 510 kts 151°
2026-05-01 13:54 31.98444 -83.02776 28826 ft 512 kts 151°
2026-05-01 13:55 31.95568 -83.00282 29031 ft 514 kts 151°
2026-05-01 13:55 31.92696 -82.97791 29311 ft 513 kts 151°
2026-05-01 13:55 31.89820 -82.95298 29620 ft 512 kts 151°
2026-05-01 13:55 31.86951 -82.92813 29912 ft 512 kts 151°
2026-05-01 13:56 31.84087 -82.90336 30171 ft 511 kts 151°
2026-05-01 13:56 31.81222 -82.87861 30409 ft 511 kts 151°
2026-05-01 13:56 31.78361 -82.85383 30639 ft 511 kts 151°
2026-05-01 13:56 31.75537 -82.82843 30872 ft 512 kts 149°
2026-05-01 13:57 31.72752 -82.80224 31098 ft 513 kts 148°
2026-05-01 13:57 31.70924 -82.78457 31260 ft 514 kts 148°
2026-05-01 13:57 31.67254 -82.74864 31564 ft 514 kts 147°
2026-05-01 13:57 31.64506 -82.72183 31788 ft 513 kts 148°
2026-05-01 13:58 31.61751 -82.69525 32016 ft 512 kts 148°
2026-05-01 13:58 31.58985 -82.66892 32250 ft 512 kts 148°
2026-05-01 13:58 31.56210 -82.64276 32473 ft 512 kts 149°
2026-05-01 13:58 31.53428 -82.61669 32697 ft 512 kts 149°
2026-05-01 13:59 31.50645 -82.59060 32929 ft 512 kts 148°
2026-05-01 13:59 31.47869 -82.56451 33149 ft 512 kts 148°
2026-05-01 13:59 31.45097 -82.53838 33364 ft 512 kts 148°
2026-05-01 13:59 31.42325 -82.51219 33588 ft 512 kts 148°
2026-05-01 14:00 31.39554 -82.48599 33782 ft 512 kts 148°
2026-05-01 14:00 31.36808 -82.46008 33951 ft 513 kts 148°
2026-05-01 14:00 31.31264 -82.40797 33986 ft 510 kts 148°
2026-05-01 14:01 31.25739 -82.35614 33985 ft 509 kts 148°
2026-05-01 14:01 31.20219 -82.30444 33981 ft 508 kts 148°
2026-05-01 14:02 31.14703 -82.25287 33987 ft 508 kts 148°
2026-05-01 14:02 31.09189 -82.20139 33987 ft 507 kts 148°
2026-05-01 14:03 31.03679 -82.14997 33983 ft 507 kts 148°
2026-05-01 14:03 30.98168 -82.09851 33980 ft 507 kts 148°
2026-05-01 14:04 30.92661 -82.04728 33983 ft 506 kts 148°
2026-05-01 14:04 30.88048 -82.00447 33975 ft 506 kts 148°
2026-05-01 14:05 30.81656 -81.94523 33964 ft 505 kts 148°
2026-05-01 14:05 30.76161 -81.89431 33970 ft 505 kts 148°
2026-05-01 14:06 30.70666 -81.84354 33972 ft 504 kts 148°
2026-05-01 14:06 30.65175 -81.79290 33981 ft 504 kts 148°
2026-05-01 14:07 30.60556 -81.75088 33971 ft 501 kts 149°
2026-05-01 14:08 30.52027 -81.68199 33966 ft 497 kts 153°
2026-05-01 14:08 30.46289 -81.63739 33971 ft 497 kts 152°
2026-05-01 14:09 30.40597 -81.59192 33970 ft 497 kts 151°
2026-05-01 14:09 30.34929 -81.54607 33970 ft 496 kts 151°
2026-05-01 14:10 30.29272 -81.50038 33969 ft 495 kts 151°
2026-05-01 14:10 30.23610 -81.45510 33967 ft 495 kts 151°
2026-05-01 14:11 30.17949 -81.40995 33966 ft 494 kts 151°
2026-05-01 14:11 30.09484 -81.34235 33978 ft 493 kts 151°
2026-05-01 14:12 30.03853 -81.29736 33982 ft 492 kts 151°
2026-05-01 14:12 29.98219 -81.25259 33975 ft 491 kts 151°
2026-05-01 14:13 29.92597 -81.20800 33970 ft 490 kts 151°
2026-05-01 14:13 29.86985 -81.16337 33971 ft 490 kts 151°
2026-05-01 14:14 29.81328 -81.12109 33965 ft 483 kts 160°
2026-05-01 14:14 29.75208 -81.09110 33945 ft 477 kts 164°
2026-05-01 14:15 29.69063 -81.06218 33945 ft 477 kts 164°
2026-05-01 14:15 29.62919 -81.03309 33952 ft 477 kts 163°
2026-05-01 14:16 29.56741 -81.00384 33957 ft 477 kts 163°
2026-05-01 14:16 29.50646 -80.97509 33958 ft 476 kts 163°
2026-05-01 14:17 29.44515 -80.94627 33961 ft 476 kts 163°
2026-05-01 14:17 29.38395 -80.91754 33962 ft 475 kts 163°
2026-05-01 14:18 29.32273 -80.88879 33964 ft 475 kts 163°
2026-05-01 14:18 29.27154 -80.86478 33964 ft 474 kts 163°
2026-05-01 14:19 29.20057 -80.83158 33973 ft 474 kts 163°
2026-05-01 14:19 29.13954 -80.80303 33972 ft 473 kts 163°
2026-05-01 14:20 29.04801 -80.76024 33970 ft 473 kts 162°
2026-05-01 14:21 28.98715 -80.73182 33963 ft 473 kts 162°
2026-05-01 14:21 28.92623 -80.70341 33959 ft 472 kts 162°
2026-05-01 14:22 28.86912 -80.66553 33944 ft 482 kts 143°
2026-05-01 14:22 28.84489 -80.63882 33941 ft 486 kts 133°
2026-05-01 14:22 28.80597 -80.57541 33936 ft 489 kts 126°
2026-05-01 14:23 28.76834 -80.51073 33937 ft 489 kts 126°
2026-05-01 14:23 28.73054 -80.44626 33934 ft 489 kts 126°
2026-05-01 14:24 28.69266 -80.38180 33933 ft 489 kts 126°
2026-05-01 14:24 28.65461 -80.31762 33938 ft 489 kts 126°
2026-05-01 14:25 28.61653 -80.25357 33949 ft 489 kts 126°
2026-05-01 14:25 28.57845 -80.18953 33957 ft 488 kts 126°
2026-05-01 14:26 28.52135 -80.09370 33969 ft 488 kts 126°
2026-05-01 14:27 28.48326 -80.02996 33973 ft 487 kts 126°
2026-05-01 14:27 28.44516 -79.96621 33979 ft 487 kts 126°
2026-05-01 14:28 28.38818 -79.87065 33986 ft 487 kts 126°
2026-05-01 14:28 28.35011 -79.80709 33982 ft 486 kts 126°
2026-05-01 14:29 28.31197 -79.74367 33981 ft 486 kts 126°
2026-05-01 14:30 28.23560 -79.61719 33979 ft 486 kts 126°
2026-05-01 14:31 28.17851 -79.52237 33975 ft 485 kts 126°
2026-05-01 14:31 28.14039 -79.45921 33973 ft 485 kts 126°
2026-05-01 14:32 28.10222 -79.39614 33978 ft 485 kts 126°
2026-05-01 14:32 28.06395 -79.33319 33978 ft 485 kts 126°
2026-05-01 14:33 28.02571 -79.27033 33975 ft 485 kts 126°
2026-05-01 14:33 27.98746 -79.20741 33977 ft 485 kts 126°
2026-05-01 14:34 27.94926 -79.14453 33975 ft 485 kts 126°
2026-05-01 14:34 27.91092 -79.08176 33975 ft 485 kts 126°
2026-05-01 14:35 27.87260 -79.01911 33974 ft 485 kts 126°
2026-05-01 14:35 27.83428 -78.95640 33977 ft 485 kts 126°
2026-05-01 14:36 27.79592 -78.89373 33976 ft 485 kts 126°
2026-05-01 14:36 27.75749 -78.83114 33977 ft 485 kts 126°
2026-05-01 14:37 27.71905 -78.76872 33973 ft 485 kts 126°
2026-05-01 14:37 27.68059 -78.70625 33976 ft 485 kts 126°
2026-05-01 14:38 27.64216 -78.64379 33975 ft 485 kts 126°
2026-05-01 14:38 27.60448 -78.58069 33979 ft 485 kts 124°
2026-05-01 14:39 27.56803 -78.51726 33977 ft 485 kts 124°
2026-05-01 14:39 27.53129 -78.45352 33976 ft 485 kts 124°
2026-05-01 14:40 27.49415 -78.39004 33979 ft 485 kts 124°
2026-05-01 14:40 27.45686 -78.32666 33977 ft 485 kts 124°
2026-05-01 14:41 27.41968 -78.26333 33976 ft 485 kts 124°
2026-05-01 14:41 27.38245 -78.20000 33978 ft 484 kts 124°
2026-05-01 14:42 27.34504 -78.13691 33978 ft 484 kts 127°
2026-05-01 14:42 27.30158 -78.07933 33977 ft 483 kts 133°
2026-05-01 14:43 27.25713 -78.02287 33975 ft 482 kts 133°
2026-05-01 14:43 27.21271 -77.96636 33974 ft 482 kts 132°
2026-05-01 14:44 27.16830 -77.90992 33978 ft 482 kts 133°
2026-05-01 14:44 27.10151 -77.82542 33979 ft 482 kts 133°
2026-05-01 14:45 27.03498 -77.74138 33982 ft 482 kts 133°
2026-05-01 14:46 26.99045 -77.68514 33980 ft 482 kts 133°
2026-05-01 14:46 26.92358 -77.60090 33981 ft 482 kts 133°
2026-05-01 14:47 26.87891 -77.54481 33980 ft 482 kts 133°
2026-05-01 14:48 26.81948 -77.47020 33976 ft 482 kts 133°
2026-05-01 14:48 26.75251 -77.38615 33979 ft 482 kts 133°
2026-05-01 14:49 26.66300 -77.27423 33980 ft 483 kts 134°
2026-05-01 14:50 26.57330 -77.16240 33979 ft 483 kts 134°
2026-05-01 14:51 26.50598 -77.07853 33977 ft 483 kts 134°
2026-05-01 14:52 26.43884 -76.99511 33983 ft 484 kts 134°
2026-05-01 14:53 26.37124 -76.91144 33984 ft 484 kts 134°
2026-05-01 14:53 26.32618 -76.85561 33986 ft 484 kts 134°
2026-05-01 14:54 26.28119 -76.79982 33990 ft 484 kts 135°
2026-05-01 14:54 26.23609 -76.74411 33991 ft 484 kts 135°
2026-05-01 14:55 26.19098 -76.68849 33994 ft 484 kts 135°
2026-05-01 14:55 26.14591 -76.63296 33998 ft 483 kts 135°
2026-05-01 14:56 26.10085 -76.57739 33997 ft 483 kts 135°
2026-05-01 14:56 26.05573 -76.52200 34000 ft 483 kts 135°
2026-05-01 14:57 26.01061 -76.46667 34002 ft 483 kts 135°
2026-05-01 14:57 25.94289 -76.38377 33995 ft 483 kts 136°
2026-05-01 14:58 25.89773 -76.32854 34000 ft 483 kts 136°
2026-05-01 14:58 25.85254 -76.27328 34000 ft 483 kts 136°
2026-05-01 14:59 25.80735 -76.21806 33997 ft 483 kts 136°
2026-05-01 14:59 25.76208 -76.16292 33999 ft 483 kts 136°
2026-05-01 15:00 25.69412 -76.08028 34002 ft 484 kts 135°
2026-05-01 15:01 25.64886 -76.02514 34016 ft 483 kts 136°
2026-05-01 15:01 25.60352 -75.97019 34022 ft 483 kts 136°
2026-05-01 15:02 25.55821 -75.91532 34027 ft 482 kts 136°
2026-05-01 15:02 25.51303 -75.86058 34035 ft 481 kts 136°
2026-05-01 15:03 25.46794 -75.80591 34038 ft 480 kts 136°
2026-05-01 15:03 25.42318 -75.75183 34042 ft 479 kts 136°
2026-05-01 15:04 25.37819 -75.69754 34040 ft 478 kts 136°
2026-05-01 15:04 25.33324 -75.64344 34043 ft 477 kts 136°
2026-05-01 15:05 25.28836 -75.58945 34036 ft 476 kts 136°
2026-05-01 15:05 25.24355 -75.53561 34039 ft 475 kts 136°
2026-05-01 15:06 25.19883 -75.48192 34038 ft 474 kts 136°
2026-05-01 15:06 25.15418 -75.42837 34034 ft 474 kts 136°
2026-05-01 15:07 25.10953 -75.37486 34031 ft 474 kts 136°
2026-05-01 15:07 25.06490 -75.32143 34032 ft 473 kts 136°
2026-05-01 15:08 25.02026 -75.26810 34030 ft 473 kts 136°
2026-05-01 15:08 24.97568 -75.21483 34025 ft 472 kts 136°
2026-05-01 15:09 24.93111 -75.16165 34024 ft 472 kts 136°
2026-05-01 15:09 24.88657 -75.10858 34024 ft 472 kts 135°
2026-05-01 15:10 24.84194 -75.05559 34024 ft 471 kts 135°
2026-05-01 15:10 24.77511 -74.97622 34024 ft 471 kts 135°
2026-05-01 15:11 24.70839 -74.89689 34027 ft 471 kts 135°
2026-05-01 15:12 24.66382 -74.84419 34028 ft 470 kts 135°
2026-05-01 15:12 24.59703 -74.76525 34034 ft 470 kts 135°
2026-05-01 15:14 24.48582 -74.63379 34038 ft 469 kts 135°
2026-05-01 15:14 24.41934 -74.55565 34036 ft 469 kts 135°
2026-05-01 15:15 24.33034 -74.45106 34044 ft 469 kts 135°
2026-05-01 15:16 24.24123 -74.34662 34044 ft 469 kts 135°
2026-05-01 15:18 24.12985 -74.21628 34049 ft 469 kts 135°
2026-05-01 15:19 24.04064 -74.11225 34046 ft 468 kts 135°
2026-05-01 15:19 23.97373 -74.03424 34045 ft 468 kts 135°
2026-05-01 15:20 23.90684 -73.95645 34046 ft 468 kts 135°
2026-05-01 15:21 23.86220 -73.90465 34047 ft 468 kts 135°
2026-05-01 15:21 23.81762 -73.85287 34045 ft 468 kts 135°
2026-05-01 15:22 23.75070 -73.77534 34044 ft 467 kts 135°
2026-05-01 15:22 23.70604 -73.72377 34037 ft 467 kts 135°
2026-05-01 15:23 23.66142 -73.67226 34045 ft 467 kts 134°
2026-05-01 15:23 23.61684 -73.62071 34037 ft 467 kts 134°
2026-05-01 15:24 23.57223 -73.56926 34040 ft 467 kts 134°
2026-05-01 15:24 23.52759 -73.51785 34042 ft 467 kts 135°
2026-05-01 15:25 23.48293 -73.46657 34034 ft 466 kts 134°
2026-05-01 15:25 23.43833 -73.41525 34039 ft 466 kts 134°
2026-05-01 15:26 23.39373 -73.36394 34036 ft 466 kts 134°
2026-05-01 15:26 23.34913 -73.31270 34040 ft 466 kts 134°
2026-05-01 15:27 23.30468 -73.26194 34039 ft 466 kts 134°
2026-05-01 15:28 23.23777 -73.18539 34041 ft 465 kts 134°
2026-05-01 15:28 23.19316 -73.13431 34038 ft 465 kts 134°
2026-05-01 15:29 23.12632 -73.05797 34032 ft 464 kts 134°
2026-05-01 15:30 23.04467 -72.96512 34035 ft 464 kts 134°
2026-05-01 15:31 22.91652 -72.80795 34034 ft 464 kts 128°
2026-05-01 15:32 22.83701 -72.69772 34033 ft 464 kts 129°
2026-05-01 15:34 22.71497 -72.53476 34034 ft 464 kts 129°